FW2530 Weather Reports


time (UTC)temp
C
wind
direction
speed
KPH
gust
KPH
rain 1hr
cm
rain 24hr
cm
rain mn
cm
humidity
%
barometer
mb
20260510192524 12 360 8.0 11.3 0.00 0.46 0.00 51 1017.5
20260510192024 12 360 8.0 24.1 0.00 0.46 0.00 50 1017.6
20260510191504 13 356 6.4 20.9 0.00 0.46 0.00 52 1017.5
20260510191003 13 359 6.4 19.3 0.00 0.46 0.00 50 1017.5
20260510190503 13 1 8.0 17.7 0.00 0.46 0.00 50 1017.5
20260510190003 13 354 9.7 25.7 0.00 0.46 0.00 50 1017.4
20260510185503 13 341 8.0 24.1 0.00 0.46 0.00 50 1017.2
20260510185003 14 343 6.4 19.3 0.00 0.46 0.00 50 1017.2
20260510184503 14 337 6.4 17.7 0.00 0.46 0.00 27 1017.1
20260510184003 14 329 8.0 25.7 0.00 0.46 0.00 50 1017.2
20260510183503 14 329 8.0 24.1 0.00 0.46 0.00 50 1017.1
20260510183024 14 309 9.7 17.7 0.00 0.46 0.00 50 1017.1
20260510182503 14 319 9.7 27.4 0.00 0.46 0.00 52 1017.1
20260510182003 13 332 9.7 20.9 0.00 0.46 0.00 50 1017.0
20260510181504 13 324 9.7 19.3 0.00 0.46 0.00 30 1017.1
20260510181004 13 315 9.7 24.1 0.00 0.46 0.00 51 1017.0
20260510180504 13 315 9.7 25.7 0.00 0.46 0.00 51 1017.1
20260510180005 13 323 8.0 19.3 0.00 0.46 0.00 52 1016.9
20260510175505 13 322 8.0 19.3 0.00 0.46 0.00 52 1017.0
20260510175026 13 337 8.0 20.9 0.00 0.46 0.00 52 1017.0
20260510174526 13 359 8.0 25.7 0.00 0.46 0.00 52 1017.0
20260510174004 13 356 8.0 30.6 0.00 0.46 0.00 52 1017.0
20260510173505 13 15 8.0 19.3 0.00 0.46 0.00 53 1017.1
20260510173004 13 26 9.7 25.7 0.00 0.46 0.00 50 1017.1
20260510172504 13 15 8.0 25.7 0.00 0.46 0.00 51 1017.1
20260510172004 13 360 8.0 20.9 0.00 0.46 0.00 53 1017.2
20260510171505 12 339 9.7 20.9 0.00 0.46 0.00 52 1017.1
20260510171004 12 327 9.7 25.7 0.00 0.46 0.00 51 1017.1
20260510170504 12 348 8.0 19.3 0.00 0.46 0.00 52 1017.1
20260510170004 12 360 8.0 19.3 0.00 0.46 0.00 31 1017.1
20260510165504 12 360 8.0 20.9 0.00 0.46 0.00 55 1017.0
20260510165004 12 360 9.7 24.1 0.00 0.46 0.00 52 1017.0
20260510164525 12 360 9.7 20.9 0.00 0.46 0.00 53 1017.0
20260510164004 12 360 11.3 20.9 0.00 0.46 0.00 53 1016.9
20260510163504 12 360 11.3 30.6 0.00 0.46 0.00 51 1016.8
20260510163004 12 360 11.3 24.1 0.00 0.46 0.00 52 1016.7
20260510162504 12 360 9.7 30.6 0.00 0.46 0.00 52 1016.8
20260510162004 12 360 8.0 12.9 0.00 0.46 0.00 55 1016.6
20260510161504 12 360 11.3 20.9 0.00 0.46 0.00 56 1016.6
20260510161004 12 360 9.7 30.6 0.00 0.46 0.00 52 1016.6
20260510160525 12 360 8.0 19.3 0.00 0.46 0.00 55 1016.5
20260510160004 12 360 8.0 20.9 0.00 0.46 0.00 53 1016.5
20260510155525 12 360 8.0 20.9 0.00 0.46 0.00 56 1016.5
20260510155025 12 360 8.0 19.3 0.00 0.46 0.00 55 1016.5
20260510154526 12 360 9.7 25.7 0.00 0.46 0.00 53 1016.5
20260510154025 12 360 8.0 24.1 0.00 0.46 0.00 55 1016.4
20260510153505 12 360 9.7 25.7 0.00 0.46 0.00 55 1016.3
20260510153004 12 360 8.0 24.1 0.00 0.46 0.00 34 1016.3
20260510152504 12 360 8.0 19.3 0.00 0.46 0.00 55 1016.3
20260510152004 12 360 9.7 19.3 0.00 0.46 0.00 55 1016.3
20260510151504 12 360 9.7 24.1 0.00 0.46 0.00 53 1016.2
20260510151004 12 358 9.7 30.6 0.00 0.46 0.00 52 1016.2
20260510150504 12 350 9.7 24.1 0.00 0.46 0.00 53 1016.1
20260510150025 12 353 8.0 20.9 0.00 0.46 0.00 55 1016.0
20260510145525 12 7 8.0 20.9 0.00 0.46 0.00 56 1015.9
20260510145004 12 6 6.4 19.3 0.00 0.46 0.00 55 1015.9
20260510144504 11 348 6.4 17.7 0.00 0.46 0.00 33 1015.9
20260510144025 11 346 4.8 14.5 0.00 0.46 0.00 57 1015.8
20260510143504 11 349 4.8 11.3 0.00 0.46 0.00 58 1015.8
20260510143004 11 345 6.4 17.7 0.00 0.46 0.00 57 1015.7
20260510142504 11 346 6.4 20.9 0.00 0.46 0.00 60 1015.5
20260510142004 11 357 6.4 17.7 0.00 0.46 0.00 62 1015.6
20260510141504 11 7 4.8 17.7 0.00 0.46 0.00 62 1015.5
20260510141025 11 17 4.8 11.3 0.00 0.46 0.00 63 1015.4
20260510140505 10 339 6.4 19.3 0.00 0.46 0.00 63 1015.4
20260510140025 10 316 6.4 19.3 0.00 0.46 0.00 64 1015.4
20260510135504 10 358 6.4 12.9 0.00 0.46 0.00 64 1015.2
20260510135025 10 355 6.4 11.3 0.00 0.46 0.00 64 1015.2
20260510134505 10 339 6.4 11.3 0.00 0.46 0.00 64 1015.1
20260510134004 10 358 6.4 17.7 0.00 0.46 0.00 64 1014.9
20260510133504 9 10 8.0 19.3 0.00 0.46 0.00 64 1014.9
20260510133004 9 1 8.0 20.9 0.00 0.46 0.00 64 1014.9
20260510132504 9 360 6.4 17.7 0.00 0.46 0.00 64 1014.9
20260510132004 9 7 6.4 19.3 0.00 0.46 0.00 66 1014.8
20260510131504 8 10 6.4 14.5 0.00 0.46 0.00 67 1014.8
20260510131004 8 15 9.7 19.3 0.00 0.46 0.00 66 1014.8
20260510130504 8 11 9.7 20.9 0.00 0.46 0.00 67 1014.8
20260510130004 8 10 9.7 19.3 0.00 0.46 0.00 67 1014.6
20260510125504 8 12 9.7 20.9 0.00 0.46 0.00 69 1014.6
20260510125004 8 6 8.0 25.7 0.00 0.46 0.00 69 1014.6
20260510124504 8 357 8.0 17.7 0.00 0.46 0.00 70 1014.5
20260510124004 8 358 9.7 25.7 0.00 0.46 0.00 71 1014.5
20260510123525 7 1 9.7 24.1 0.00 0.46 0.00 71 1014.5
20260510123004 7 3 8.0 19.3 0.00 0.46 0.00 72 1014.4
20260510122526 7 360 8.0 19.3 0.00 0.46 0.00 73 1014.3
20260510122004 7 2 9.7 19.3 0.00 0.46 0.00 74 1014.3
20260510121504 7 5 8.0 19.3 0.00 0.46 0.00 75 1014.3
20260510121004 7 6 6.4 14.5 0.00 0.46 0.00 77 1014.1
20260510120525 6 7 8.0 19.3 0.00 0.46 0.00 77 1014.1
20260510120004 6 8 8.0 25.7 0.00 0.46 0.00 78 1014.0
20260510115504 6 11 8.0 20.9 0.00 0.46 0.00 78 1014.1
20260510115004 6 11 8.0 14.5 0.00 0.46 0.00 79 1014.0
20260510114504 5 10 8.0 14.5 0.00 0.46 0.00 80 1014.0
20260510114025 5 13 6.4 19.3 0.00 0.46 0.00 81 1013.9
20260510113504 5 16 4.8 14.5 0.00 0.46 0.00 83 1013.8
20260510113004 5 14 4.8 11.3 0.00 0.46 0.00 83 1013.6
20260510112504 4 8 4.8 8.0 0.00 0.46 0.00 84 1013.6
20260510112004 4 7 3.2 8.0 0.00 0.46 0.00 85 1013.6
20260510111504 3 7 1.6 6.4 0.00 0.46 0.00 85 1013.5
20260510111004 3 5 1.6 6.4 0.00 0.46 0.00 85 1013.4
20260510110504 3 9 3.2 6.4 0.00 0.46 0.00 85 1013.4
20260510110005 2 9 1.6 11.3 0.00 0.46 0.00 85 1013.3
20260510105525 2 2 1.6 6.4 0.00 0.46 0.00 85 1013.3
20260510105004 2 3 3.2 6.4 0.00 0.46 0.00 86 1013.3
20260510104504 2 10 1.6 6.4 0.00 0.46 0.00 86 1013.2
20260510104004 1 18 1.6 6.4 0.00 0.46 0.00 85 1013.2
20260510103504 1 19 0.0 4.8 0.00 0.46 0.00 85 1013.1
20260510103004 1 19 0.0 1.6 0.00 0.46 0.00 85 1013.1
20260510102504 1 19 0.0 4.8 0.00 0.46 0.00 85 1012.9
20260510102004 1 19 0.0 1.6 0.00 0.46 0.00 85 1012.9
20260510101504 1 19 0.0 4.8 0.00 0.46 0.00 85 1012.7
20260510101004 1 0 0.0 0.0 0.00 0.46 0.00 85 1012.6
20260510100504 1 0 0.0 0.0 0.00 0.46 0.00 85 1012.6
20260510100004 1 0 0.0 0.0 0.00 0.46 0.00 84 1012.5
20260510095504 1 0 0.0 0.0 0.00 0.46 0.00 84 1012.5
20260510095004 1 0 0.0 0.0 0.00 0.46 0.00 84 1012.4
20260510094526 2 0 0.0 0.0 0.00 0.46 0.00 84 1012.3
20260510094004 2 0 0.0 0.0 0.00 0.46 0.00 84 1012.1
20260510093504 2 0 0.0 0.0 0.00 0.46 0.00 83 1012.1
20260510093004 2 0 0.0 0.0 0.00 0.46 0.00 83 1011.9
20260510092504 2 0 0.0 0.0 0.00 0.46 0.00 83 1011.7
20260510092004 2 0 0.0 0.0 0.00 0.46 0.00 83 1011.6
20260510091504 2 0 0.0 0.0 0.00 0.46 0.00 83 1011.6
20260510091004 2 0 0.0 0.0 0.00 0.46 0.00 83 1011.4
20260510090504 2 0 0.0 0.0 0.00 0.46 0.00 82 1011.4
20260510090004 2 0 0.0 0.0 0.00 0.46 0.00 82 1011.2
20260510085504 2 0 0.0 0.0 0.00 0.46 0.00 82 1011.2
20260510085004 3 0 0.0 0.0 0.00 0.46 0.00 82 1011.2
20260510084504 3 0 0.0 0.0 0.00 0.46 0.00 82 1011.0
20260510084004 3 0 0.0 0.0 0.00 0.46 0.00 81 1010.9
20260510083504 3 0 0.0 0.0 0.00 0.46 0.00 81 1010.8
20260510083004 3 0 0.0 0.0 0.00 0.46 0.00 81 1010.7
20260510082504 3 0 0.0 0.0 0.00 0.46 0.00 81 1010.6
20260510082004 3 0 0.0 0.0 0.00 0.46 0.00 81 1010.6
20260510081504 3 0 0.0 0.0 0.00 0.46 0.00 81 1010.4
20260510081004 3 0 0.0 0.0 0.00 0.46 0.00 81 1010.4
20260510080505 4 0 0.0 0.0 0.00 0.46 0.00 80 1010.5
20260510080004 4 0 0.0 0.0 0.00 0.46 0.00 80 1010.4
20260510075525 4 0 0.0 0.0 0.00 0.46 0.00 80 1010.5
20260510075004 4 0 0.0 0.0 0.00 0.46 0.00 80 1010.3
20260510074504 5 0 0.0 0.0 0.00 0.46 0.00 80 1010.2
20260510074025 5 0 0.0 0.0 0.00 0.46 0.00 79 1010.2
20260510073504 5 0 0.0 0.0 0.00 0.46 0.00 79 1010.1
20260510073004 5 0 0.0 0.0 0.00 0.46 0.00 79 1010.1
20260510072504 5 0 0.0 0.0 0.00 0.46 0.00 79 1010.0
20260510072004 5 0 0.0 0.0 0.00 0.46 0.00 78 1009.9
20260510071504 5 0 0.0 0.0 0.00 0.46 0.00 78 1009.9
20260510071004 5 0 0.0 0.0 0.00 0.46 0.00 78 1009.9
20260510070504 5 0 0.0 0.0 0.00 0.46 0.00 77 1009.9
20260510070004 6 21 0.0 0.0 0.00 0.46 0.00 77 1009.9
20260510065504 6 21 0.0 4.8 0.00 0.46 0.00 77 1009.9
20260510065025 6 22 1.6 4.8 0.00 0.46 0.00 77 1009.8
20260510064504 6 22 1.6 4.8 0.00 0.46 0.00 77 1009.8
20260510064004 6 22 1.6 6.4 0.00 0.46 0.00 77 1009.7
20260510063504 6 21 1.6 6.4 0.00 0.46 0.00 75 1009.7
20260510063025 6 20 0.0 4.8 0.00 0.46 0.00 75 1009.5
20260510062504 6 19 0.0 0.0 0.00 0.46 0.00 75 1009.7
20260510062005 6 19 1.6 4.8 0.00 0.46 0.00 75 1009.7
20260510061525 7 19 1.6 4.8 0.00 0.46 0.00 74 1009.8
20260510061004 7 18 3.2 8.0 0.00 0.46 0.00 74 1009.7
20260510060504 7 13 4.8 11.3 0.00 0.46 0.00 74 1009.7
20260510060004 7 15 4.8 11.3 0.00 0.46 0.00 74 1009.7
20260510055504 7 24 4.8 12.9 0.00 0.46 0.00 74 1009.7
20260510055004 7 26 4.8 11.3 0.00 0.46 0.00 73 1009.5
20260510054504 7 22 4.8 11.3 0.00 0.46 0.00 73 1009.4
20260510054004 7 21 6.4 14.5 0.00 0.46 0.00 73 1009.3
20260510053504 7 23 6.4 17.7 0.00 0.46 0.00 72 1009.3
20260510053004 7 23 4.8 12.9 0.00 0.46 0.00 72 1009.2
20260510052504 7 18 3.2 11.3 0.00 0.46 0.00 72 1009.2
20260510052004 7 18 3.2 11.3 0.00 0.46 0.00 71 1009.1
20260510051504 7 26 1.6 6.4 0.00 0.46 0.00 71 1008.9
20260510051004 8 26 1.6 4.8 0.00 0.46 0.00 71 1008.9
20260510050504 8 25 3.2 8.0 0.00 0.46 0.00 71 1008.7
20260510050004 8 25 3.2 8.0 0.00 0.46 0.00 71 1008.9
20260510045504 8 24 3.2 6.4 0.00 0.46 0.00 72 1008.7
20260510045004 8 24 3.2 11.3 0.00 0.46 0.00 72 1008.6
20260510044504 8 26 4.8 11.3 0.00 0.46 0.00 72 1008.5
20260510044004 8 29 3.2 12.9 0.00 0.46 0.00 72 1008.4
20260510043505 8 30 3.2 8.0 0.00 0.46 0.00 73 1008.3
20260510043004 8 30 3.2 6.4 0.00 0.46 0.00 73 1008.2
20260510042504 8 26 3.2 17.7 0.00 0.46 0.00 72 1008.2
20260510042004 8 24 3.2 11.3 0.00 0.46 0.00 72 1008.2
20260510041504 8 24 3.2 6.4 0.00 0.46 0.00 72 1008.0
20260510041004 9 25 1.6 6.4 0.00 0.46 0.00 72 1007.7
20260510040504 9 25 0.0 1.6 0.00 0.46 0.00 71 1007.5
20260510040005 9 24 0.0 6.4 0.00 0.46 0.00 71 1007.4
20260510035525 9 24 1.6 4.8 0.00 0.46 0.46 71 1007.4
20260510035025 9 24 1.6 6.4 0.00 0.46 0.46 71 1007.4
20260510034504 9 24 1.6 6.4 0.00 0.46 0.46 71 1007.4
20260510034004 9 24 1.6 6.4 0.00 0.46 0.46 71 1007.5
20260510033504 10 24 1.6 6.4 0.00 0.46 0.46 71 1007.3
20260510033025 10 24 1.6 6.4 0.00 0.46 0.46 71 1007.2
20260510032525 10 24 1.6 6.4 0.00 0.46 0.46 71 1007.3
20260510032004 10 24 1.6 6.4 0.00 0.46 0.46 71 1007.2
20260510031504 10 22 1.6 6.4 0.00 0.46 0.46 71 1006.9
20260510031004 10 20 3.2 8.0 0.00 0.46 0.46 72 1006.8
20260510030503 10 19 1.6 6.4 0.00 0.46 0.46 72 1007.0
20260510030025 10 19 1.6 6.4 0.00 0.46 0.46 71 1006.8
20260510025503 11 19 0.0 6.4 0.00 0.46 0.46 71 1006.6
20260510025025 11 19 0.0 4.8 0.00 0.46 0.46 71 1006.6
20260510024504 11 19 0.0 1.6 0.00 0.46 0.46 71 1006.5
20260510024004 11 19 0.0 1.6 0.00 0.46 0.46 71 1006.5
20260510023525 11 19 0.0 1.6 0.00 0.46 0.46 71 1006.5
20260510023004 11 19 0.0 1.6 0.00 0.46 0.46 71 1006.5
20260510022525 11 19 1.6 4.8 0.00 0.46 0.46 71 1006.5
20260510022004 11 20 3.2 11.3 0.00 0.46 0.46 71 1006.6
20260510021524 11 23 3.2 8.0 0.00 0.46 0.46 71 1006.2
20260510021003 11 24 4.8 17.7 0.00 0.46 0.46 71 1005.8
20260510020525 11 25 3.2 12.9 0.00 0.46 0.46 71 1005.7
20260510020004 12 25 3.2 8.0 0.00 0.46 0.46 71 1005.6
20260510015504 12 11 4.8 8.0 0.00 0.46 0.46 71 1005.6
20260510015003 12 1 6.4 17.7 0.00 0.46 0.46 71 1005.6
20260510014503 12 360 6.4 12.9 0.00 0.46 0.46 71 1005.5
20260510014003 12 360 4.8 12.9 0.00 0.46 0.46 71 1005.6
20260510013503 12 360 6.4 19.3 0.00 0.46 0.46 71 1005.4
20260510013004 12 360 6.4 20.9 0.00 0.46 0.46 71 1005.1
20260510012524 12 360 4.8 12.9 0.00 0.46 0.46 72 1004.9
20260510012004 12 360 6.4 17.7 0.00 0.46 0.46 74 1004.8
20260510011504 12 360 6.4 20.9 0.00 0.46 0.46 75 1004.7
20260510011025 12 360 4.8 17.7 0.00 0.46 0.46 77 1004.7
20260510010504 13 360 1.6 4.8 0.00 0.46 0.46 79 1004.6
20260510010004 13 360 0.0 4.8 0.00 0.46 0.46 81 1004.3
20260510005525 13 360 0.0 1.6 0.00 0.46 0.46 81 1004.2
20260510005004 13 360 0.0 1.6 0.00 0.46 0.46 81 1004.2
20260510004524 13 360 1.6 1.6 0.00 0.46 0.46 81 1004.1
20260510004003 13 360 3.2 8.0 0.00 0.46 0.46 81 1004.1
20260510003504 13 360 6.4 11.3 0.00 0.46 0.46 81 1004.0
20260510003024 13 360 4.8 24.1 0.00 0.46 0.46 81 1004.0
20260510002503 14 360 1.6 8.0 0.00 0.46 0.46 81 1003.8
20260510002003 14 360 0.0 0.0 0.00 0.46 0.46 81 1003.5
20260510001504 14 358 0.0 4.8 0.00 0.46 0.46 81 1003.3
20260510001004 14 301 0.0 1.6 0.00 0.46 0.46 81 1003.3
20260510000504 14 310 0.0 4.8 0.00 0.46 0.46 81 1003.1
20260510000024 14 264 0.0 0.0 0.00 0.46 0.46 81 1003.1
20260509235503 14 246 1.6 4.8 0.00 0.46 0.46 81 1003.0
20260509235003 14 240 1.6 6.4 0.00 0.46 0.46 81 1003.0
20260509234504 14 241 1.6 4.8 0.00 0.46 0.46 81 1002.9
20260509234003 14 243 3.2 8.0 0.00 0.46 0.46 81 1003.0
20260509233503 14 254 3.2 6.4 0.00 0.46 0.46 80 1002.8
20260509233024 14 265 3.2 6.4 0.00 0.46 0.46 80 1002.8
20260509232503 14 229 6.4 8.0 0.00 0.46 0.46 80 1002.7
20260509232025 14 220 6.4 12.9 0.00 0.46 0.46 80 1002.7
20260509231503 14 217 6.4 11.3 0.00 0.46 0.46 80 1002.8
20260509231024 14 216 4.8 12.9 0.00 0.46 0.46 80 1002.7
20260509230503 15 215 4.8 11.3 0.00 0.46 0.46 79 1002.7
20260509230003 15 215 4.8 11.3 0.00 0.46 0.46 79 1002.6
20260509225503 15 217 3.2 6.4 0.00 0.46 0.46 78 1002.6
20260509225003 15 217 4.8 6.4 0.00 0.46 0.46 77 1002.4
20260509224503 15 216 4.8 11.3 0.00 0.46 0.46 77 1002.4
20260509224004 15 216 4.8 11.3 0.00 0.46 0.46 77 1002.2
20260509223503 15 214 4.8 8.0 0.00 0.46 0.46 77 1002.0
20260509223024 15 207 4.8 11.3 0.00 0.46 0.46 77 1001.9
20260509222503 15 197 6.4 12.9 0.00 0.46 0.46 77 1001.8
20260509222004 15 201 6.4 12.9 0.00 0.46 0.46 77 1001.8
20260509221503 15 210 4.8 14.5 0.00 0.46 0.46 77 1001.7
20260509221003 15 216 8.0 11.3 0.00 0.46 0.46 77 1001.8
20260509220503 15 221 8.0 17.7 0.00 0.46 0.46 77 1001.6
20260509220003 15 216 6.4 12.9 0.00 0.46 0.46 77 1001.6
20260509215503 14 206 6.4 14.5 0.00 0.46 0.46 77 1001.5
20260509215003 14 211 9.7 14.5 0.00 0.46 0.46 77 1001.5
20260509214504 14 216 11.3 20.9 0.00 0.46 0.46 77 1001.5
20260509214025 14 216 8.0 19.3 0.00 0.46 0.46 78 1001.6
20260509213504 14 218 6.4 14.5 0.00 0.46 0.46 79 1001.6
20260509213004 13 219 6.4 12.9 0.03 0.46 0.46 80 1001.9
20260509212503 13 276 4.8 14.5 0.05 0.46 0.46 81 1001.8
20260509212024 13 340 3.2 8.0 0.05 0.46 0.46 82 1001.9
20260509211503 12 344 3.2 8.0 0.38 0.46 0.46 82 1002.0
20260509211003 12 349 3.2 11.3 0.46 0.46 0.46 82 1002.0
20260509210524 12 346 3.2 12.9 0.46 0.46 0.46 83 1001.9
20260509210024 12 333 3.2 11.3 0.46 0.46 0.46 83 1002.1
20260509205503 12 348 4.8 14.5 0.46 0.46 0.46 84 1002.0
20260509205024 12 336 4.8 11.3 0.46 0.46 0.46 84 1002.0
20260509204504 11 316 3.2 12.9 0.46 0.46 0.46 85 1002.1
20260509204003 11 350 3.2 6.4 0.46 0.46 0.46 84 1002.1
20260509203503 11 303 6.4 12.9 0.46 0.46 0.46 83 1002.1
20260509203003 12 308 9.7 20.9 0.43 0.43 0.43 82 1002.3
20260509202524 13 349 12.9 30.6 0.43 0.43 0.43 81 1002.4
20260509202003 14 360 16.1 33.8 0.41 0.41 0.41 79 1002.4
20260509201503 16 341 12.9 45.1 0.08 0.08 0.08 78 1002.7
20260509201003 16 282 9.7 24.1 0.00 0.00 0.00 77 1002.0
20260509200503 16 254 9.7 30.6 0.00 0.00 0.00 75 1001.5
20260509200004 16 221 9.7 24.1 0.00 0.00 0.00 74 1001.4
20260509195525 16 230 8.0 20.9 0.00 0.00 0.00 74 1001.3
20260509195024 16 326 8.0 24.1 0.00 0.00 0.00 74 1001.3
20260509194503 16 252 8.0 32.2 0.00 0.00 0.00 74 1001.3
20260509194003 16 279 8.0 25.7 0.00 0.00 0.00 74 1001.2
20260509193503 16 264 11.3 32.2 0.00 0.00 0.00 74 1001.3
20260509193004 16 275 16.1 27.4 0.00 0.00 0.00 74 1001.4